Tracking 30970 objects as of 3-Jul-2025
HD Live streaming from Space Station
objects crossing your sky now

THORAD AGENA D DEB

Track THORAD AGENA D DEB now!
10-day predictions


NORAD ID: 4748
Int'l Code: 1970-025CW
Perigee: 1,024.3 km
Apogee: 1,030.9 km
Inclination: 100.1 °
Period: 105.6 minutes
Semi major axis: 7398 km
RCS: 0.1028 m2 (medium)
Launch date: April 8, 1970
Source: United States (US)
Launch site: AIR FORCE WESTERN TEST RANGE (AFWTR)

Note: This is SATELLITE DEBRIS
Your satellite tracking list
STARLINK-5384
Track 1 satellite(s)




NASA's NSSDC Master Catalog

Two Line Element Set (TLE):
1 04748U 70025CW  25183.90937159  .00000286  00000-0  41808-3 0  9999
2 04748 100.0947 342.7922 0004490 272.9397  87.1230 13.64203407735322
Source of the keplerian elements: AFSPC